Location: Henham
(51.9333°N, 0.2500°E)
Time: 02:28:58
(UTC+00:00)

ARGOS - Pass Details

Date: 23 October 2019
Orbit: 820 x 835 km, 98.5° (Epoch: 16 November)

Event Time Altitude Azimuth Distance (km) Brightness Sun altitude
Exits shadow 18:27:50 24° 77° (ENE) 1,683 4.2 -15.9°
Maximum altitude 18:28:58 26° 57° (ENE) 1,614 4.2 -16.0°
Drops below altitude 10° 18:33:20 10° 4° (N) 2,460 5.6 -16.7°
Sets 18:36:03 0° 352° (N) 3,397 6.5 -17.1°
